Weather History for Freeport, IL

Change the Weather History Date:

Sunday, March 23, 2014

  Actual Average Record
Temperature  
Mean Temperature 24 °F -  
Max Temperature 31 °F 48 °F 68 °F (1988)
Min Temperature 16 °F 26 °F 9 °F (1974)
Degree Days  
Heating Degree Days 42    
Moisture  
Dew Point 9 °F    
Average Humidity 55    
Maximum Humidity 70    
Minimum Humidity 40    
Precipitation  
Precipitation 0.00 in - - ()
Sea Level Pressure  
Sea Level Pressure 30.42 in    
Wind  
Wind Speed 11 mph (NW)    
Max Wind Speed 16 mph    
Max Gust Speed 20 mph    
Visibility 10 miles    
Events      
Averages and records for this station are not official NWS values.
T = Trace of Precipitation, MM = Missing Value Source: NWS Daily Summary

Daily Weather History Graph

Daily Weather History Graph

Search for Another Location

Airport:

Trip Planner

Search our weather history database for the weather conditions in past years. The results will help you decide how hot, cold, wet, or windy it might be!

Date:

Astronomy

Mar. 23, 2014 Rise Set
Actual Time 6:56 AM CDT 7:13 PM CDT
Civil Twilight 6:28 AM CDT 7:42 PM CDT
Nautical Twilight 5:55 AM CDT 8:15 PM CDT
Astronomical Twilight 5:21 AM CDT 8:48 PM CDT
Moon 1:36 AM CDT (3/23) 11:32 AM CDT (3/23)
Length of Visible Light 13h 13m
Length of Day
12h 17m
Waning Gibbous, 54% of the Moon is Illuminated
Mar 23
Waning Gibbous
Mar 23
Last Quarter
Mar 30
New
Apr 7
First Quarter
Apr 15
Full

Hourly Weather History & Observations

Time (CDT) Temp. Windchill Dew Point Humidity Pressure Visibility Wind Dir Wind Speed Gust Speed Precip Events Conditions
12:15 AM 23.9 °F 11.2 °F 10.4 °F 56% 30.38 in 10.0 mi NNW 15.0 mph - N/A   Clear
12:35 AM 23.7 °F 11.0 °F 10.0 °F 56% 30.39 in 10.0 mi North 15.0 mph 18.4 mph N/A   Clear
12:55 AM 23.7 °F 10.5 °F 10.0 °F 56% 30.39 in 10.0 mi North 16.1 mph 19.6 mph N/A   Clear
1:15 AM 23.7 °F 12.1 °F 11.1 °F 59% 30.40 in 10.0 mi North 12.7 mph 18.4 mph N/A   Clear
1:35 AM 23.2 °F 10.8 °F 10.6 °F 59% 30.41 in 10.0 mi NNW 13.8 mph - N/A   Clear
1:55 AM 22.1 °F 10.0 °F 10.6 °F 61% 30.41 in 10.0 mi NNW 12.7 mph 17.3 mph N/A   Clear
2:15 AM 21.4 °F 8.0 °F 9.0 °F 59% 30.42 in 10.0 mi NNW 15.0 mph - N/A   Clear
2:35 AM 21.2 °F 8.9 °F 9.9 °F 62% 30.42 in 10.0 mi NNW 12.7 mph 19.6 mph N/A   Clear
2:55 AM 21.2 °F 10.9 °F 10.2 °F 63% 30.42 in 10.0 mi North 9.2 mph - N/A   Clear
3:15 AM 21.2 °F 9.5 °F 9.9 °F 62% 30.43 in 10.0 mi North 11.5 mph - N/A   Clear
3:35 AM 20.8 °F 9.7 °F 10.6 °F 65% 30.43 in 10.0 mi NNW 10.4 mph - N/A   Clear
3:55 AM 19.9 °F 7.9 °F 10.0 °F 65% 30.43 in 10.0 mi NNW 11.5 mph - N/A   Clear
4:15 AM 19.2 °F 7.0 °F 9.9 °F 67% 30.44 in 10.0 mi NNW 11.5 mph - N/A   Clear
4:35 AM 18.5 °F 6.8 °F 8.6 °F 65% 30.44 in 10.0 mi NNW 10.4 mph - N/A   Clear
4:55 AM 18.5 °F 7.5 °F 9.5 °F 68% 30.44 in 10.0 mi North 9.2 mph - N/A   Clear
5:15 AM 18.5 °F 4.9 °F 9.7 °F 68% 30.45 in 10.0 mi NNW 13.8 mph 17.3 mph N/A   Clear
5:35 AM 18.5 °F 6.1 °F 10.0 °F 70% 30.45 in 10.0 mi NNW 11.5 mph - N/A   Clear
5:55 AM 18.5 °F 6.8 °F 9.7 °F 68% 30.45 in 10.0 mi NNW 10.4 mph - N/A   Clear
6:15 AM 18.5 °F 7.5 °F 9.7 °F 68% 30.45 in 10.0 mi NNW 9.2 mph - N/A   Clear
6:35 AM 18.3 °F 7.3 °F 9.5 °F 68% 30.46 in 10.0 mi NNW 9.2 mph - N/A   Clear
6:55 AM 16.5 °F 5.1 °F 8.1 °F 69% 30.46 in 10.0 mi NNW 9.2 mph - N/A   Clear
7:15 AM 16.7 °F 4.5 °F 7.9 °F 68% 30.46 in 10.0 mi NNW 10.4 mph - N/A   Clear
7:35 AM 17.4 °F 7.1 °F 9.0 °F 69% 30.47 in 10.0 mi NNW 8.1 mph - N/A   Clear
7:55 AM 18.5 °F 7.5 °F 9.5 °F 68% 30.47 in 10.0 mi NNW 9.2 mph - N/A   Clear
8:15 AM 18.5 °F 6.1 °F 9.0 °F 66% 30.47 in 10.0 mi NNW 11.5 mph 16.1 mph N/A   Clear
8:35 AM 18.5 °F 6.8 °F 7.7 °F 63% 30.47 in 10.0 mi NNW 10.4 mph - N/A   Clear
8:55 AM 19.0 °F 8.2 °F 7.2 °F 60% 30.47 in 10.0 mi NNW 9.2 mph - N/A   Clear
9:15 AM 19.8 °F 8.3 °F 7.2 °F 58% 30.47 in 10.0 mi NNW 10.4 mph - N/A   Clear
9:35 AM 20.8 °F 10.4 °F 7.5 °F 56% 30.48 in 10.0 mi North 9.2 mph - N/A   Clear
9:55 AM 21.2 °F 10.9 °F 8.1 °F 57% 30.48 in 10.0 mi NNW 9.2 mph 16.1 mph N/A   Clear
10:15 AM 21.9 °F 11.7 °F 7.5 °F 54% 30.48 in 10.0 mi North 9.2 mph - N/A   Clear
10:35 AM 21.4 °F 11.1 °F 6.6 °F 53% 30.48 in 10.0 mi NNW 9.2 mph - N/A   Clear
10:55 AM 23.7 °F 14.0 °F 8.1 °F 51% 30.47 in 10.0 mi NW 9.2 mph - N/A   Clear
11:15 AM 23.7 °F 12.6 °F 6.6 °F 48% 30.47 in 10.0 mi NNW 11.5 mph - N/A   Clear
11:35 AM 23.7 °F 12.6 °F 6.4 °F 48% 30.47 in 10.0 mi NW 11.5 mph - N/A   Clear
11:55 AM 23.9 °F 13.5 °F 6.3 °F 47% 30.47 in 10.0 mi NNW 10.4 mph - N/A   Clear
12:15 PM 25.2 °F 15.1 °F 6.4 °F 45% 30.46 in 10.0 mi NNW 10.4 mph 16.1 mph N/A   Clear
12:35 PM 25.7 °F 18.0 °F 5.4 °F 42% 30.45 in 10.0 mi NNW 6.9 mph - N/A   Clear
12:55 PM 26.2 °F 18.6 °F 7.5 °F 45% 30.45 in 10.0 mi NNW 6.9 mph - N/A   Clear
1:15 PM 26.8 °F 17.1 °F 6.6 °F 42% 30.44 in 10.0 mi NNW 10.4 mph - N/A   Scattered Clouds
1:35 PM 27.7 °F 18.2 °F 9.0 °F 45% 30.43 in 10.0 mi NW 10.4 mph - N/A   Scattered Clouds
1:55 PM 27.9 °F 19.1 °F 7.9 °F 43% 30.43 in 10.0 mi NW 9.2 mph - N/A   Scattered Clouds
2:15 PM 29.1 °F 21.3 °F 9.1 °F 43% 30.42 in 10.0 mi West 8.1 mph - N/A   Scattered Clouds
2:35 PM 27.1 °F 16.4 °F 8.6 °F 46% 30.41 in 10.0 mi WNW 12.7 mph - N/A   Mostly Cloudy
2:55 PM 28.8 °F 22.6 °F 8.8 °F 43% 30.40 in 10.0 mi NW 5.8 mph 9.2 mph N/A   Scattered Clouds
3:15 PM 27.9 °F 19.8 °F 7.3 °F 42% 30.40 in 10.0 mi NW 8.1 mph - N/A   Scattered Clouds
3:35 PM 28.2 °F 18.9 °F 8.1 °F 43% 30.40 in 10.0 mi NW 10.4 mph - N/A   Scattered Clouds
3:55 PM 28.8 °F 18.4 °F 8.4 °F 42% 30.39 in 10.0 mi NW 12.7 mph - N/A   Scattered Clouds
4:15 PM 31.5 °F 21.8 °F 9.7 °F 40% 30.39 in 10.0 mi NW 12.7 mph 18.4 mph N/A   Scattered Clouds
4:35 PM 29.7 °F 22.8 °F 9.3 °F 43% 30.39 in 10.0 mi WNW 6.9 mph 16.1 mph N/A   Mostly Cloudy
4:55 PM 31.5 °F 22.3 °F 9.3 °F 40% 30.39 in 10.0 mi WNW 11.5 mph - N/A   Mostly Cloudy
5:15 PM 28.9 °F 20.4 °F 8.1 °F 41% 30.39 in 10.0 mi NW 9.2 mph - N/A   Mostly Cloudy
5:35 PM 29.1 °F 19.4 °F 8.1 °F 41% 30.38 in 10.0 mi NNW 11.5 mph - N/A   Scattered Clouds
5:55 PM 29.3 °F 20.2 °F 8.2 °F 41% 30.38 in 10.0 mi NW 10.4 mph - N/A   Scattered Clouds
6:15 PM 28.8 °F 20.9 °F 7.7 °F 41% 30.38 in 10.0 mi NW 8.1 mph - N/A   Scattered Clouds
6:35 PM 27.9 °F 19.8 °F 7.5 °F 42% 30.38 in 10.0 mi WNW 8.1 mph - N/A   Clear
6:55 PM 27.1 °F 17.5 °F 7.0 °F 43% 30.38 in 10.0 mi WNW 10.4 mph 16.1 mph N/A   Clear
7:15 PM 26.2 °F 17.8 °F 7.9 °F 46% 30.37 in 10.0 mi WNW 8.1 mph - N/A   Clear
7:35 PM 26.2 °F 19.6 °F 7.7 °F 46% 30.37 in 10.0 mi WNW 5.8 mph - N/A   Clear
7:55 PM 24.8 °F 16.9 °F 8.1 °F 49% 30.37 in 10.0 mi WNW 6.9 mph - N/A   Clear
8:15 PM 23.9 °F 18.0 °F 9.3 °F 54% 30.37 in 10.0 mi NW 4.6 mph - N/A   Clear
8:35 PM 23.7 °F 17.8 °F 10.8 °F 58% 30.37 in 10.0 mi NW 4.6 mph - N/A   Clear
8:55 PM 23.7 °F 17.8 °F 11.3 °F 59% 30.37 in 10.0 mi WNW 4.6 mph - N/A   Clear
9:15 PM 23.7 °F 17.8 °F 11.1 °F 59% 30.37 in 10.0 mi WNW 4.6 mph - N/A   Clear
9:35 PM 23.7 °F 19.3 °F 11.5 °F 60% 30.37 in 10.0 mi NW 3.5 mph - N/A   Clear
9:55 PM 23.4 °F 18.9 °F 12.9 °F 64% 30.37 in 10.0 mi NW 3.5 mph - N/A   Clear
10:15 PM 21.2 °F 13.6 °F 11.8 °F 67% 30.37 in 10.0 mi NW 5.8 mph - N/A   Clear
10:35 PM 22.3 °F 16.1 °F 12.4 °F 66% 30.38 in 10.0 mi WNW 4.6 mph - N/A   Clear
10:55 PM 21.9 °F 15.7 °F 12.0 °F 66% 30.38 in 10.0 mi WNW 4.6 mph - N/A   Clear
11:15 PM 21.4 °F 13.8 °F 11.5 °F 66% 30.38 in 10.0 mi NW 5.8 mph - N/A   Clear
11:35 PM 21.6 °F 15.3 °F 11.7 °F 66% 30.38 in 10.0 mi WNW 4.6 mph - N/A   Clear
11:55 PM 21.2 °F 13.6 °F 12.0 °F 68% 30.39 in 10.0 mi WNW 5.8 mph - N/A   Clear